Back to catalog

STARLINK-34063

AliveCommunicationsVLEO
NORAD 64185·PAYLOAD·🇺🇸 United States

Launched May 28, 2025 from Cape Canaveral Space Force Station

Loading…

Next Passes (next 24 hours)

TLE

FreshSource: CelesTrak SupGP

Epoch: Sep 14, 2026, 23:03 UTC

1 64185C 25113R   26257.96090278  .00053024  00000+0  17043-2 0  2576
2 64185  53.1589 290.4982 0001178  86.7933 299.5316 15.31691204    12

Track STARLINK-34063 in real time with AllMySat

Download on the App Store